Home   Weather   Ittoqqortoormiit   Past weeks

Flag for Greenland Past Weather in Ittoqqortoormiit, Greenland — Yesterday and Last 2 Weeks

Now
-3 °F

Frigid.


Feels Like: -20 °F
Forecast: -12 / -9 °F
Wind: 10 mph from North

Location: Daneborg

Current Time: Jan 17, 2017 at 6:24:50 pm

Latest Report: Jan 17, 2017 at 5:00 pm


Visibility: N/A

Pressure: 29.50 "Hg

Humidity: 53%

Dew Point: -16 °F

Location of IttoqqortoormiitLocation

Past Weather in Ittoqqortoormiit — Graph

°F

Ittoqqortoormiit Temperature Yesterday

Maximum temperature yesterday: 9 °F (at 1:00 am)
Minimum temperature yesterday: -5 °F (at 11:00 am)
Average temperature yesterday: 4 °F

High & Low Weather Summary for the Past Weeks

 TemperatureHumidityPressure
High14 °F (Jan 6, 1:00 pm)90% (Jan 16, 1:00 am)30.32 "Hg (Jan 16, 1:00 am)
Low-29 °F (Jan 9, 11:00 am)39% (Jan 17, 10:00 am)28.41 "Hg (Jan 16, 12:00 pm)
Average-7 °F68%29.70 "Hg
* Reported Jan 2 5:00 pm — Jan 17 5:00 pm, Ittoqqortoormiit, Weather by CustomWeather, © 2017

Note: Actual official high and low records may vary slightly from our data, if they occured in-between our weather recording intervals... More about our weather records

Advertising

Ittoqqortoormiit Weather History for the Previous 24 Hours

Scroll right to see more
 ConditionsComfort  
Time TempWeatherWind HumidityBarometerVisibility
5:00 pm
Tue, Jan 17
-3 °FFrigid.10 mph53%29.50 "HgN/A
4:00 pm-2 °FFrigid.14 mph50%29.50 "HgN/A
3:00 pm-3 °FFrigid.20 mph62%29.47 "HgN/A
2:00 pm-6 °FFrigid.3 mph52%29.47 "HgN/A
1:00 pm-8 °FFrigid.6 mph50%29.44 "HgN/A
12:00 pm-7 °FFrigid.6 mph51%29.41 "HgN/A
11:00 am0 °FFrigid.8 mph41%29.38 "HgN/A
10:00 am0 °FFrigid.9 mph39%29.35 "HgN/A
9:00 am-3 °FFrigid.14 mph48%29.32 "HgN/A
8:00 am-6 °FFrigid.5 mph68%29.29 "HgN/A
7:00 am-8 °FFrigid.5 mph76%29.26 "HgN/A
6:00 am-7 °FFrigid.6 mph84%29.23 "HgN/A
5:00 am-7 °FFrigid.3 mph86%29.21 "HgN/A
4:00 am-1 °FFrigid.8 mph82%29.15 "HgN/A
3:00 am1 °FFrigid.9 mph85%29.12 "HgN/A
2:00 am1 °FFrigid.12 mph85%29.09 "HgN/A
1:00 am3 °FFrigid.6 mph84%29.06 "HgN/A
12:00 am4 °FFrigid.5 mph83%29.00 "HgN/A
11:00 pm
Mon, Jan 16
4 °FFrigid.7 mph84%28.97 "HgN/A
10:00 pm5 °FFrigid.8 mph82%28.91 "HgN/A
9:00 pm5 °FFrigid.10 mph86%28.85 "HgN/A
8:00 pm6 °FFrigid.1 mph85%28.79 "HgN/A
7:00 pm5 °FFrigid.6 mph75%28.73 "HgN/A
6:00 pm5 °FFrigid.17 mph62%28.67 "HgN/A
Weather by CustomWeather, © 2017

See weather overviewHow to use our weather pages